Tracking 29933 objects as of 2-Dec-2024
HD Live streaming from Space Station
objects crossing your sky now

STARLINK-11111

Track STARLINK-11111 now!
10-day predictions
STARLINK-11111 is classified as:


NORAD ID: 59764
Int'l Code: 2024-091M
Perigee: 365.3 km
Apogee: 368.2 km
Inclination: 53.2 °
Period: 91.7 minutes
Semi major axis: 6737 km
RCS: Unknown
Launch date: May 14, 2024
Source: United States (US)
Launch site: AIR FORCE WESTERN TEST RANGE (AFWTR)
Your satellite tracking list
Your tracking list is empty




NASA's NSSDC Master Catalog

Two Line Element Set (TLE):
1 59764U 24091M   24336.27602852 -.00015909  00000-0 -12645-3 0  9994
2 59764  53.1562 330.3783 0002182  69.5910 290.5342 15.69752177 32735
Source of the keplerian elements: AFSPC